Location: A�t Bou Chrif
(32.7193°N, 5.2385°W)
Time: 04:15:43
(UTC+00:00)

SL-16 R/B - Pass Details

Date: 08 August 2020
Orbit: 843 x 845 km, 71.0° (Epoch: 20 September)

Event Time Altitude Azimuth Distance (km) Brightness Sun altitude
Rises 23:21:07 0° 338° (NNW) 3,408 6.3 -39.0°
Reaches altitude 10° 23:23:34 10° 337° (NNW) 2,470 5.3 -39.2°
Enters shadow 23:25:54 26° 334° (NNW) 1,619 4.1 -39.4°
